Location: Hermaringen
(48.5952°N, 10.2585°E)
Time: 07:07:04
(UTC+00:00)

IRS-P3 - Pass Details

Date: 18 November 2025
Orbit: 810 x 816 km, 99.0° (Epoch: 06 December)

Event Time Altitude Azimuth Distance (km) Brightness Sun altitude
Rises 16:26:58 0° 146° (SE) 3,331 7.2 -8.5°
Reaches altitude 10° 16:29:21 10° 141° (SE) 2,403 6.4 -8.9°
Maximum altitude 16:34:28 50° 67° (ENE) 1,031 4.3 -9.7°
Drops below altitude 10° 16:39:36 10° 354° (N) 2,415 6.5 -10.5°
Sets 16:42:00 0° 349° (N) 3,351 7.3 -10.9°
